Wind_Gust
4 2 2 1 1 2 5 4 6 8 6 10 10 9 20 6 17 15 22 13 16 12 13 14 16 14 20 22 24 19 15 6 4 11 9 14 10 21 22 22 19 20 20 17 15 15 17 21 23 23 23 24 25 24 24 25 25 24 23 23 21 20 20 20 19 19 19 18 19 19 19 19 19 18 19 19 19 20 20 22 21 21 21 20 20 20 20 19 18 19 20 18 17 17 17 18 18
1 1 2 1 3 2 5 5 7 2 4 8 19 3 13 7 5 11 11 12 14 11 10 19 23 28 27 23 18 23 24 19 14 19 21 18 19 19 19 20 21 23 19 18 16 15 15 20 22 23 24 25 25 25 24 24 25 25 23 23 22 21 21 20 20 20 19 18 19 19 19 19 19 18 17 16 15 14 15 18 20 20 20 20 20 20 19 19 19 19 19 17 16 16 16 17 17
2 5 5 3 2 4 3 4 6 4 5 18 13 19 7 14 6 7 16 17 19 11 9 14 15 13 16 15 23 16 9 15 25 21 23 16 24 12 14 16 18 19 20 18 18 16 15 18 22 23 25 24 24 24 24 24 24 24 23 22 22 21 20 20 20 19 19 18 19 19 19 19 19 18 17 16 15 14 14 15 19 19 18 19 19 19 18 19 19 18 18 16 15 15 16 16 15
3 3 3 3 6 3 6 6 5 10 10 12 16 9 11 11 16 13 21 17 4 20 7 9 15 15 20 25 22 21 19 17 17 22 29 14 19 19 17 18 17 17 17 18 17 16 14 19 21 23 25 24 24 25 24 24 25 24 23 23 22 21 19 19 19 18 19 19 19 18 19 19 18 17 17 16 14 12 14 15 15 17 16 16 18 18 18 18 18 17 16 15 14 15 15 15 15
3 3 4 4 6 4 6 9 8 9 19 13 12 9 9 7 13 15 18 12 5 12 14 15 22 11 17 15 4 11 14 17 15 14 24 14 20 21 18 16 17 18 18 18 17 16 16 21 21 21 22 25 24 25 24 25 25 24 23 22 21 19 19 18 18 18 18 18 18 18 18 18 18 17 17 17 16 15 14 14 13 14 15 16 18 17 16 16 16 16 16 15 13 14 14 14 15
3 2 2 4 7 7 7 5 8 13 15 5 9 16 4 12 12 15 16 5 5 7 15 9 16 9 17 11 9 13 19 18 20 17 27 18 21 21 19 16 17 19 18 17 17 15 17 20 21 22 22 25 24 25 25 25 25 23 22 21 22 20 19 18 18 19 19 18 18 18 18 19 18 18 18 18 17 17 17 15 14 13 15 18 18 17 17 16 16 15 14 13 13 12 13 13 13
4 4 4 2 8 4 8 6 10 14 21 10 22 20 17 21 22 17 17 10 9 15 14 19 25 19 24 13 15 14 12 21 18 20 18 23 21 20 19 19 19 18 19 19 16 16 18 20 21 21 22 23 25 25 25 25 24 23 22 22 21 20 19 19 19 19 18 18 18 18 18 18 18 18 18 18 17 17 16 15 16 16 14 13 15 16 16 16 16 15 12 13 12 11 11 11 11
1 5 5 5 7 5 6 6 13 11 12 14 12 18 19 22 22 15 16 9 5 11 7 16 11 22 6 7 15 12 13 14 24 23 28 25 20 19 20 21 20 18 21 17 15 16 21 20 21 21 22 22 24 24 24 25 23 23 22 21 21 20 20 20 19 19 17 18 18 18 18 18 18 18 18 17 18 18 18 17 17 16 14 14 13 14 16 16 16 15 13 12 10 9 10 11 11
2 3 4 6 3 6 5 11 16 11 18 12 19 20 22 22 22 24 23 13 3 8 15 17 20 19 7 17 17 10 23 24 26 27 25 24 20 20 22 21 21 19 20 18 15 15 16 18 20 21 22 22 24 25 25 24 24 22 22 20 20 18 18 19 20 20 18 16 16 17 18 18 18 18 18 18 18 17 17 17 15 15 14 14 16 17 17 16 16 15 13 11 9 8 9 10 10
3 5 4 8 6 5 6 15 7 13 12 12 14 20 19 23 15 14 10 4 10 14 6 6 13 24 18 22 18 11 21 23 24 24 24 22 21 20 21 20 21 20 19 17 15 16 15 20 20 21 21 22 23 23 22 21 21 21 20 19 19 18 18 19 18 19 17 17 16 17 17 18 18 18 17 18 18 17 17 17 16 16 15 15 15 17 16 17 16 14 13 11 8 7 8 9 9
6 5 4 4 3 6 11 15 12 18 16 16 17 23 21 25 22 14 6 5 15 15 12 27 27 23 19 11 11 4 15 20 25 25 21 21 20 21 21 20 21 21 20 17 16 15 17 17 22 20 20 20 20 20 19 19 19 18 17 18 17 19 19 18 18 18 17 17 18 17 17 18 18 18 18 18 18 18 17 17 16 15 14 15 15 15 16 16 15 14 12 11 9 6 7 6 8
5 5 5 5 8 10 11 10 13 17 16 15 26 24 18 25 16 12 5 8 12 20 20 12 25 29 19 18 14 14 13 15 19 21 21 22 25 23 21 18 19 19 22 19 16 15 15 15 16 21 20 20 19 20 19 19 18 18 17 17 17 17 17 16 17 15 15 17 16 16 15 17 18 18 18 18 17 18 17 17 16 15 14 14 15 15 14 14 13 12 12 10 9 6 6 7 8
7 3 2 5 9 4 11 10 17 12 16 21 19 27 16 18 12 7 3 5 4 10 7 10 31 12 16 14 11 11 16 11 15 21 24 25 23 21 19 20 20 20 19 18 17 15 14 13 15 16 18 23 21 19 18 19 18 17 17 18 18 18 17 16 18 17 16 15 14 15 15 16 18 18 18 18 17 17 17 17 16 16 16 16 14 13 14 12 12 12 11 11 8 7 6 7 8
10 9 4 10 4 7 12 12 9 10 18 21 16 10 5 6 2 4 13 14 13 7 6 23 20 21 20 17 12 15 16 12 21 22 25 24 23 23 21 18 18 17 16 16 16 15 13 11 13 15 18 17 17 20 19 18 18 18 18 18 18 17 16 16 14 14 14 13 15 15 14 15 16 17 17 17 17 17 17 16 16 16 16 16 15 14 12 11 10 10 10 8 7 6 5 7 8
14 7 5 7 9 7 8 13 7 7 21 14 20 9 12 4 7 13 22 19 13 11 21 14 27 20 22 24 17 18 17 17 24 24 27 26 24 22 20 18 18 16 15 14 13 14 15 13 13 12 11 12 14 14 15 20 20 19 18 18 17 16 15 16 15 14 14 13 13 13 14 16 16 16 17 16 16 16 16 15 16 15 15 16 15 14 12 11 10 9 8 7 6 6 4 7 8
15 7 8 6 11 6 17 10 4 5 20 6 12 8 3 5 5 6 8 17 11 5 5 13 6 8 22 14 23 22 20 23 25 28 30 28 23 20 20 16 14 14 14 14 13 12 14 13 12 13 12 12 11 12 14 15 20 20 18 18 17 16 16 15 14 14 15 15 16 15 15 15 14 15 18 16 16 15 13 11 14 14 15 16 15 14 12 10 9 8 6 5 4 4 3 7 8
7 10 8 9 15 9 12 8 4 15 13 17 14 7 9 5 12 14 11 16 19 6 14 11 9 15 25 13 23 22 21 25 26 29 28 26 22 18 16 15 14 11 12 10 12 13 11 12 11 12 11 13 13 12 12 13 18 18 16 18 17 16 15 15 13 15 15 14 14 13 12 9 7 8 10 9 14 10 9 12 12 14 15 15 15 14 12 10 9 8 6 5 4 3 3 5 7
7 14 13 11 14 16 17 10 7 12 24 21 19 10 9 6 10 12 16 19 18 16 18 15 19 13 17 25 23 23 23 27 27 27 26 24 21 20 20 16 16 15 12 12 10 11 12 10 12 12 13 14 13 13 11 12 14 14 10 11 11 13 15 15 12 8 11 10 15 12 7 8 7 6 6 10 7 9 11 12 11 13 14 14 13 13 11 9 9 7 7 6 5 3 2 2 5
12 10 12 17 12 29 6 4 9 14 19 16 21 21 7 3 3 6 17 6 17 20 14 17 22 17 21 26 24 24 23 24 24 24 26 24 23 23 22 19 15 15 13 11 10 10 11 11 11 12 12 13 14 12 11 11 10 9 9 10 10 11 12 12 8 9 8 10 11 9 8 6 5 4 5 8 8 10 10 12 11 12 13 13 12 12 10 9 7 6 5 4 3 2 1 2 4
10 10 13 18 17 19 9 5 16 10 9 22 26 20 3 1 5 6 16 16 19 19 18 11 22 22 24 23 24 23 23 23 23 24 23 22 21 21 20 19 18 15 15 13 13 10 12 12 12 12 14 14 14 12 11 10 8 9 9 9 9 9 9 8 8 9 9 10 11 9 7 7 6 3 11 14 13 8 8 11 11 11 12 12 11 8 9 7 7 8 8 8 6 5 2 4 6
9 11 15 17 8 13 12 11 12 9 11 16 14 8 11 13 5 12 13 16 7 10 18 23 21 24 22 23 24 23 22 24 21 24 24 21 20 18 19 19 20 17 14 12 12 12 11 13 13 12 13 13 14 14 13 11 9 9 9 9 9 9 9 7 9 10 9 10 10 8 7 6 6 4 6 7 7 7 5 4 5 2 4 6 9 6 7 7 8 6 6 7 6 6 6 5 6
9 9 12 18 15 17 18 14 13 14 18 14 9 7 8 10 5 7 15 16 18 20 16 23 28 28 29 24 22 22 22 20 22 21 21 23 24 19 15 13 11 11 13 14 14 12 11 11 13 14 12 11 13 14 13 12 12 10 9 8 9 9 9 9 9 9 9 9 8 8 8 8 7 7 6 6 6 6 6 5 3 3 6 6 7 7 6 5 5 5 5 5 5 6 6 7 7
17 14 11 14 16 21 11 11 10 8 12 16 18 11 3 9 10 6 9 14 17 7 18 22 26 27 26 25 24 19 16 18 20 22 17 21 21 19 16 16 17 16 14 14 13 11 12 11 12 14 13 12 11 11 11 10 9 9 9 8 10 9 9 9 9 8 7 7 7 7 9 8 7 7 7 7 7 6 6 4 4 4 6 7 5 7 4 4 5 5 5 4 3 5 5 5 8
13 22 9 17 13 20 18 20 15 14 11 15 19 8 7 5 12 6 7 1 10 13 17 21 23 22 23 23 17 18 20 20 12 18 17 15 16 12 17 17 13 9 11 12 12 12 16 17 15 14 13 13 12 11 11 10 8 10 9 10 10 11 11 9 9 8 7 8 7 7 7 8 9 9 8 8 7 6 6 4 4 5 6 5 5 6 5 5 4 5 5 5 6 5 4 4 7
13 21 14 19 18 16 12 15 14 11 12 12 10 8 12 5 4 4 4 12 10 15 15 21 24 23 21 21 21 23 23 23 21 19 15 14 22 21 12 15 15 13 13 13 13 17 17 17 17 16 13 12 12 12 11 10 9 9 9 10 10 13 10 9 10 9 8 7 7 7 9 9 6 7 8 7 6 7 6 5 5 4 4 3 5 6 5 5 4 5 7 6 5 5 4 7 5
11 17 15 15 18 16 14 13 12 13 8 7 8 11 10 8 8 5 15 11 13 15 18 21 23 23 21 20 22 22 22 21 21 22 23 21 19 18 13 17 16 16 14 13 14 14 14 17 18 16 13 13 13 12 11 11 10 11 9 10 9 12 10 10 9 9 8 9 8 6 6 7 9 8 7 6 7 6 6 6 6 4 5 2 5 6 3 4 3 5 5 5 7 5 6 6 8
8 9 9 12 13 14 12 17 19 19 9 6 13 5 8 6 7 6 6 15 11 15 19 20 25 25 22 21 21 21 23 20 21 22 23 19 18 14 16 16 17 13 13 12 11 12 14 15 16 15 13 12 12 12 11 10 10 10 10 10 10 10 10 10 9 8 8 8 8 7 6 6 7 7 8 8 5 6 6 7 6 6 6 4 5 7 5 5 3 4 4 6 5 4 6 4 8
10 13 12 15 15 15 17 9 13 7 13 11 11 9 10 5 3 8 13 7 19 19 19 20 19 21 23 22 23 19 19 19 17 23 26 23 21 17 16 21 16 14 15 12 10 11 15 15 15 14 13 14 13 12 11 11 11 11 10 10 10 9 9 9 9 9 9 9 8 8 7 7 7 7 7 7 7 7 7 7 6 6 4 4 5 7 6 5 4 3 4 5 5 4 6 5 2
11 11 15 15 13 21 6 11 15 13 15 8 10 9 7 3 6 8 14 14 13 21 19 20 20 21 21 21 21 18 16 17 16 17 22 22 19 17 17 15 21 20 17 15 10 13 15 15 16 14 14 13 13 14 14 11 11 12 11 10 10 10 10 9 9 10 9 9 9 9 9 8 7 8 7 7 8 8 7 7 6 4 4 5 5 6 6 6 6 4 3 4 6 6 8 5 6
12 13 10 13 13 17 12 6 9 8 9 9 9 17 11 11 11 12 6 20 12 16 17 17 18 20 21 21 22 17 15 16 14 16 17 19 19 18 19 12 12 23 23 20 13 13 12 12 13 13 15 15 14 14 13 13 12 11 10 10 10 10 9 9 9 9 9 10 9 9 9 8 8 6 7 7 8 9 8 8 7 6 5 4 5 7 7 7 7 5 3 6 6 10 9 6 7
10 14 7 11 7 20 7 9 3 9 7 8 9 16 13 12 14 15 9 17 20 20 19 15 18 19 20 20 21 19 15 17 18 17 17 20 19 18 22 19 14 11 23 22 17 14 11 12 13 13 14 14 15 14 14 13 12 12 12 10 10 10 9 9 8 8 8 9 9 9 8 8 8 7 7 9 9 9 9 8 7 6 7 6 7 6 8 7 8 7 5 9 6 8 8 4 7
8 11 14 10 7 14 10 8 6 15 10 5 10 16 14 14 16 16 15 16 19 22 19 18 18 19 18 17 21 19 16 12 16 18 21 21 18 18 20 19 14 11 17 20 19 10 11 10 11 11 9 11 12 13 12 13 13 12 11 10 10 8 9 8 8 10 10 9 9 9 8 7 7 7 7 7 8 8 8 8 7 7 8 8 6 6 8 8 6 7 5 8 11 8 9 6 5
8 10 8 14 6 10 13 9 9 11 14 5 13 15 6 11 15 16 15 13 21 22 20 17 21 19 18 18 18 18 18 15 15 17 18 19 15 18 20 19 18 15 16 18 21 14 8 9 11 10 9 11 11 11 12 10 12 11 11 11 11 9 8 8 9 9 9 9 9 9 8 8 6 6 6 6 8 7 7 8 7 8 8 8 7 6 7 6 7 7 5 4 6 10 10 9 6
17 5 12 9 10 6 14 13 9 11 12 13 8 16 9 8 11 16 15 12 14 21 20 19 22 20 19 19 20 21 20 21 23 20 19 16 17 17 18 16 17 17 17 14 17 16 13 12 12 7 10 12 11 10 14 13 13 12 11 11 10 9 8 8 9 9 10 9 8 8 7 7 6 6 6 6 7 6 7 8 6 7 8 8 8 6 6 5 5 6 7 5 7 10 10 10 9
13 8 8 15 9 8 15 12 8 9 11 18 10 13 14 13 14 12 17 14 15 22 26 24 25 20 20 20 22 22 24 24 23 20 21 20 18 17 17 16 18 17 17 17 16 13 11 14 12 5 11 15 17 16 19 17 9 9 8 9 10 8 7 8 9 8 8 8 8 6 5 6 6 5 6 6 8 7 7 7 7 5 7 8 8 7 6 6 6 5 6 7 6 5 9 8 10
8 8 10 8 8 14 15 22 18 6 7 12 15 17 19 19 21 15 13 10 12 14 20 22 20 21 20 20 21 23 23 22 20 19 20 20 18 19 17 17 18 18 19 18 12 12 11 11 8 7 8 15 13 15 15 15 12 12 11 7 9 9 8 8 7 9 7 8 7 7 7 8 7 7 7 6 7 7 7 7 6 5 6 8 8 8 6 6 7 7 6 9 10 9 8 9 11
11 11 9 12 11 15 10 15 13 9 11 14 19 18 19 22 24 22 18 8 7 12 14 11 19 20 21 20 22 21 20 22 18 19 17 18 18 17 17 18 21 21 18 19 20 19 14 16 13 12 8 13 16 14 15 17 14 11 8 10 11 9 11 8 8 5 7 7 7 8 7 8 8 8 7 8 8 9 7 6 7 4 5 6 7 6 6 5 5 7 8 7 10 11 9 8 8
14 14 12 17 9 16 16 21 12 6 12 13 20 19 19 27 25 21 18 7 9 11 18 20 19 20 22 23 21 20 16 13 17 18 16 17 18 17 18 20 22 24 19 20 23 21 14 13 12 12 9 11 13 15 19 18 13 15 16 14 9 10 9 9 7 5 7 6 6 6 6 8 8 8 7 6 7 9 9 8 7 7 7 7 6 6 5 5 6 6 9 8 3 8 11 13 16
15 15 15 16 21 15 21 16 5 5 7 24 22 21 22 26 23 20 17 17 16 15 24 29 29 23 19 20 21 20 19 18 17 17 17 17 19 19 19 19 21 26 21 23 23 17 14 13 11 11 11 13 13 13 15 15 11 10 11 12 10 9 5 7 8 7 7 8 6 6 7 8 10 9 9 9 9 7 9 9 8 8 7 7 7 6 4 5 7 7 8 10 8 6 9 7 5
14 14 9 17 16 10 22 10 9 16 14 17 16 26 24 22 17 20 19 17 15 10 20 27 33 32 26 26 27 26 22 23 21 19 17 17 21 21 18 18 20 21 20 20 20 16 16 16 14 13 13 12 14 13 13 11 8 7 4 8 7 10 11 8 8 7 7 7 7 8 7 8 9 9 8 8 7 8 8 8 7 7 8 7 8 8 5 6 7 7 7 7 9 8 8 6 4
11 12 15 18 17 15 14 14 15 12 22 6 7 9 10 7 15 17 17 4 7 6 11 22 22 27 24 20 19 27 28 23 21 18 15 17 17 16 18 26 26 23 20 17 18 18 19 19 18 18 16 16 13 12 13 8 8 7 8 9 9 11 9 10 10 7 8 8 9 8 10 6 7 8 8 8 8 10 8 7 7 7 7 7 8 7 7 8 9 9 9 9 7 10 7 7 4
13 11 19 21 21 15 10 9 11 19 20 12 10 10 13 10 4 12 10 6 6 5 19 21 18 12 19 22 18 13 15 14 18 19 23 24 28 23 19 24 18 16 15 8 14 15 18 18 15 14 13 14 15 13 11 14 13 15 14 15 14 11 12 12 12 12 8 9 12 6 6 5 5 6 7 6 6 7 8 8 7 8 7 9 9 8 6 7 7 7 9 9 6 4 10 7 7
12 17 12 19 15 7 6 9 6 11 13 15 6 8 10 11 4 4 4 2 4 4 9 19 20 19 21 23 19 19 22 22 21 21 25 29 25 26 26 27 22 20 20 24 16 14 13 12 13 14 15 14 13 11 12 15 14 15 16 15 14 15 15 9 8 8 10 6 6 7 8 6 7 8 5 6 6 6 5 6 8 8 8 7 7 8 8 7 10 8 7 8 7 8 8 8 10
17 8 8 11 9 4 6 9 6 16 9 16 6 8 10 5 11 7 2 5 7 6 12 7 8 15 19 19 21 22 23 21 27 27 26 25 24 22 21 21 23 23 16 15 15 11 12 14 13 11 7 9 10 10 13 17 17 15 14 13 14 14 13 11 10 9 6 5 8 7 8 7 7 7 7 5 6 7 7 6 6 7 8 7 7 8 8 6 7 6 8 8 8 9 9 14 9
16 8 9 8 9 7 7 8 11 11 5 19 16 8 7 7 13 10 4 6 9 17 17 14 17 21 21 23 22 25 21 24 24 23 23 23 24 24 25 24 21 25 25 16 17 16 15 17 17 13 11 10 10 11 14 15 16 16 17 15 13 11 11 11 9 10 10 7 8 6 8 6 5 3 7 9 8 7 5 6 6 6 7 6 6 5 5 8 8 8 8 8 8 7 7 8 12
12 9 7 8 6 7 6 8 10 7 7 13 11 5 8 10 11 10 8 2 10 15 13 14 17 23 24 25 23 23 23 21 19 22 21 22 21 19 18 20 21 24 24 19 14 15 17 18 17 14 11 11 11 11 13 13 14 15 16 14 15 11 12 9 11 11 10 7 9 7 7 8 5 5 3 4 6 7 8 7 7 6 6 6 5 5 6 7 6 7 8 8 8 7 6 10 11
6 6 8 11 7 6 4 8 11 5 11 14 11 3 8 9 8 4 7 6 12 20 13 11 19 21 22 23 26 23 22 22 22 21 21 20 20 21 17 14 17 22 25 24 21 20 19 19 17 14 13 11 11 12 14 14 12 12 15 13 15 15 13 13 12 10 8 7 10 6 7 6 6 7 6 4 4 6 7 6 8 7 7 8 9 8 7 7 7 8 7 6 7 9 9 8 7
5 9 10 6 14 7 5 9 4 10 11 13 11 7 8 8 11 14 13 13 19 31 23 21 22 24 25 20 20 21 22 23 26 27 22 20 15 14 13 13 16 19 22 25 22 21 20 18 15 15 12 12 11 11 12 13 11 11 12 14 16 16 16 16 16 13 11 10 9 9 6 8 6 6 6 6 5 6 8 8 7 8 8 7 9 8 7 7 8 7 8 8 8 6 7 9 8
6 3 8 8 11 9 9 8 9 10 14 9 6 11 5 4 4 12 16 8 23 15 30 32 28 24 21 19 20 20 21 22 24 25 24 20 22 21 20 21 19 17 23 26 26 22 19 18 19 18 15 11 10 8 11 10 10 11 14 15 14 16 16 15 14 12 9 12 10 9 7 9 7 8 7 8 4 6 7 8 8 9 8 6 8 8 7 7 7 8 7 7 8 7 9 10 9
3 9 10 8 11 9 8 8 7 6 10 10 4 3 6 6 7 17 15 11 29 23 16 18 27 27 26 23 19 18 19 21 21 22 20 20 21 20 22 24 22 20 19 21 22 22 19 17 16 16 13 8 4 5 8 10 9 10 11 13 13 14 14 14 12 12 11 11 11 11 11 10 9 8 6 6 6 6 6 6 8 7 7 7 7 7 7 6 7 8 6 7 6 5 6 6 7
12 9 15 16 15 16 10 8 8 8 13 8 8 11 10 8 6 13 15 13 24 28 27 20 14 18 16 17 17 17 19 17 19 19 18 18 18 19 22 20 19 18 15 12 12 14 15 12 11 12 12 7 4 5 5 8 9 6 6 6 10 10 13 12 12 11 12 11 10 11 10 9 11 8 11 6 5 7 5 6 6 8 7 7 8 8 9 8 8 8 7 7 6 5 6 6 6
8 6 11 10 17 14 11 13 10 4 3 4 7 6 3 14 6 13 18 17 20 18 23 25 19 12 12 15 17 19 17 17 16 16 14 11 11 12 15 15 15 10 8 7 8 13 13 12 11 10 11 8 4 4 5 7 6 6 6 7 9 11 11 11 10 10 10 11 11 12 9 9 9 10 7 8 4 7 6 6 6 6 6 7 8 9 9 9 8 10 8 8 7 5 9 8 7
10 5 9 16 13 16 8 4 2 10 9 5 5 14 16 12 16 16 20 18 18 19 17 17 19 15 12 13 11 9 11 16 17 16 17 16 10 7 9 11 8 8 9 8 2 7 13 14 13 13 12 8 6 4 6 7 7 7 9 8 10 11 12 12 13 9 8 8 10 11 11 9 9 10 9 7 7 5 6 6 6 6 7 7 8 7 9 9 8 8 9 7 7 6 10 8 8
7 8 15 5 6 10 15 15 6 6 9 11 6 9 8 7 11 3 17 19 12 20 20 18 15 13 11 9 6 7 9 10 11 11 9 10 9 8 6 5 6 7 5 8 5 5 7 11 11 13 13 11 6 5 4 4 6 5 7 5 8 9 8 9 10 10 10 11 10 11 11 10 7 9 10 7 7 6 5 6 7 6 5 7 7 6 8 8 9 8 7 7 5 7 10 9 7
16 15 5 7 9 8 10 12 5 8 9 9 7 5 3 4 6 6 7 18 20 21 20 19 17 12 10 8 7 5 4 6 9 11 11 8 7 5 5 7 8 8 8 8 8 7 6 6 9 11 12 11 8 5 3 5 5 6 8 8 10 10 10 10 10 12 12 14 12 11 10 9 7 6 9 7 7 6 6 6 7 6 6 7 7 7 7 8 9 9 6 7 5 9 11 9 6
4 4 6 4 15 7 5 15 12 16 9 5 9 7 7 4 4 5 6 5 16 20 19 19 18 13 11 10 9 10 7 9 11 13 13 12 11 9 8 8 9 8 9 9 9 9 9 8 10 12 11 10 8 8 7 8 8 6 5 6 9 11 11 11 12 14 14 14 12 12 11 8 10 7 6 6 7 6 6 6 6 7 7 7 7 6 7 7 8 7 7 8 5 7 9 9 7
11 7 5 7 6 8 11 5 8 11 17 14 13 7 6 5 6 6 7 7 13 17 21 17 17 15 11 9 7 7 9 11 13 13 14 15 13 12 11 9 9 9 10 9 10 10 9 10 9 9 12 10 10 9 11 14 19 21 22 18 12 11 11 11 11 13 14 12 11 11 11 10 8 7 8 7 6 6 6 6 6 7 8 7 8 7 6 7 7 7 6 6 4 6 8 6 8
9 8 7 7 4 12 9 14 9 7 14 15 16 14 6 7 10 10 9 5 11 13 18 17 17 14 12 10 10 8 9 11 12 13 13 15 15 13 11 11 10 11 9 10 8 10 10 10 8 8 10 10 12 15 15 20 20 21 23 23 16 10 4 10 11 11 13 12 11 11 9 8 8 7 8 8 6 5 5 6 6 5 6 7 7 7 6 7 8 7 5 4 5 6 6 6 7
Wind_Speed
2 1 1 1 1 0 1 1 1 2 2 5 4 2 6 2 5 7 12 6 6 2 3 7 7 4 5 8 15 10 9 2 2 4 3 2 5 12 14 14 12 13 13 10 9 9 10 15 18 18 18 20 20 20 19 20 20 20 18 18 17 16 16 16 15 15 15 15 15 15 16 16 15 15 15 16 16 16 17 17 16 17 16 16 16 16 16 15 14 15 14 14 13 13 13 14 14
0 0 1 0 1 0 0 2 2 1 1 4 9 1 6 3 2 5 7 7 4 2 1 10 13 17 18 16 12 12 14 10 7 7 7 8 11 9 12 14 14 15 12 11 10 9 9 12 17 18 19 21 20 20 19 20 20 20 19 19 17 17 17 16 16 16 15 15 15 16 16 15 15 14 14 13 11 12 12 15 16 15 16 16 16 16 15 15 14 14 13 12 12 12 13 13 13
1 3 2 2 1 1 0 1 0 1 2 9 6 8 4 7 3 5 10 10 8 7 4 7 6 5 6 3 11 5 3 6 14 11 8 9 13 6 9 11 12 13 13 10 10 10 8 11 16 18 19 20 19 19 20 20 20 19 18 17 17 17 16 16 16 16 15 15 15 15 16 15 15 15 14 13 12 11 12 13 15 15 15 15 15 15 14 15 14 13 12 11 11 11 12 12 12
2 2 1 1 1 1 1 1 3 5 5 4 6 5 5 4 9 9 13 12 1 13 3 4 5 7 5 14 10 14 10 5 5 11 8 5 7 10 10 12 11 11 10 10 10 9 8 13 16 18 20 19 19 20 19 20 20 19 18 18 17 17 15 15 15 15 15 15 15 15 15 15 15 14 14 13 11 11 12 12 12 13 13 13 14 14 14 14 13 12 11 10 10 11 11 12 12
1 2 1 1 2 0 1 3 3 4 9 4 5 4 5 4 7 5 10 9 3 6 3 4 5 4 7 7 0 1 7 10 8 4 6 7 12 13 11 11 11 11 10 11 10 9 10 17 17 17 18 20 20 20 20 20 20 19 18 17 17 16 15 15 14 15 15 15 15 15 15 15 14 14 14 14 13 12 12 12 11 11 12 13 14 13 13 13 12 11 10 9 9 10 11 11 11
2 1 0 1 0 1 1 1 3 7 6 1 4 6 2 5 8 10 11 4 4 5 9 2 6 3 5 4 2 4 11 7 9 4 11 10 13 14 13 11 11 11 11 10 10 8 10 16 17 17 18 20 20 20 20 20 20 18 17 17 16 15 15 15 15 15 15 15 15 15 15 15 15 15 15 15 13 14 14 12 12 11 13 14 15 14 13 13 12 10 9 9 9 9 10 10 10
0 1 1 1 2 0 3 2 6 7 9 4 8 10 11 13 14 11 10 6 6 7 2 10 16 11 8 1 6 5 6 13 7 8 9 14 14 13 13 12 11 12 12 11 9 9 12 16 17 17 18 19 20 20 20 20 19 18 17 17 16 16 15 15 16 16 15 15 15 15 15 15 15 15 14 14 14 14 13 12 13 13 12 11 12 13 13 13 12 9 10 9 8 8 9 9 9
0 1 1 1 1 0 1 3 7 4 4 8 7 11 13 15 14 7 11 5 2 3 3 10 5 10 2 4 5 5 7 4 14 15 18 15 13 12 13 13 13 11 13 10 9 9 15 16 17 17 17 17 20 19 20 20 18 18 17 17 16 16 16 16 15 15 14 15 15 15 15 15 15 14 14 14 15 14 14 14 14 13 12 11 11 12 13 13 12 9 10 9 7 7 8 9 8
1 1 1 2 1 0 2 5 7 3 6 5 9 11 14 14 14 10 17 6 2 3 8 9 9 10 2 11 6 5 9 15 17 19 17 16 14 13 10 13 13 11 12 10 9 9 10 15 16 17 18 18 20 20 20 20 19 18 17 17 16 14 15 15 16 16 14 13 13 14 15 14 15 15 14 15 15 14 14 13 13 12 12 12 13 14 14 13 12 10 8 8 6 6 7 7 7
0 1 1 2 2 2 2 7 3 5 3 4 8 12 11 12 9 10 8 3 6 6 2 4 4 11 11 14 8 5 8 16 16 16 16 15 14 12 13 13 14 14 12 10 9 9 9 16 17 17 17 18 18 18 18 17 17 17 16 16 15 14 15 15 15 15 14 14 13 13 14 14 15 15 14 15 15 14 14 14 13 12 12 12 13 14 13 14 13 11 8 6 5 5 6 6 7
0 0 1 0 1 2 6 7 6 8 7 7 9 14 14 14 14 8 4 4 10 8 6 15 12 14 10 6 3 1 10 13 17 16 14 14 14 14 13 12 13 13 12 12 10 9 10 10 18 16 16 16 16 16 16 16 16 15 14 15 15 16 15 14 14 15 13 14 14 14 14 14 15 15 15 15 15 14 14 14 13 12 12 12 12 13 13 13 12 11 9 6 5 4 5 5 6
1 0 1 1 3 5 5 3 5 8 10 9 12 13 10 14 12 5 3 6 5 13 12 7 7 13 11 8 4 7 9 10 13 14 14 15 13 15 13 10 12 12 14 13 10 9 8 9 10 15 15 16 16 16 15 15 15 14 14 14 15 14 14 13 13 11 12 14 13 12 13 14 15 15 15 14 14 14 14 14 13 13 12 11 12 12 12 11 11 10 10 7 4 4 4 5 6
1 0 1 1 3 2 5 3 7 7 7 11 10 10 6 12 7 5 1 4 2 6 3 3 20 7 6 6 3 7 10 8 10 14 15 14 13 11 11 11 12 13 13 11 10 9 9 8 9 9 12 17 16 15 15 14 14 14 14 15 15 14 14 14 15 13 12 12 11 11 12 12 13 14 14 14 14 14 14 13 13 13 13 13 12 11 12 10 10 9 9 8 5 2 4 5 6
2 3 2 2 0 2 5 5 5 5 8 9 9 5 3 2 1 2 7 8 6 2 0 15 10 12 10 7 5 8 8 8 14 14 13 14 13 13 12 11 12 10 9 9 9 9 8 7 8 9 11 10 10 13 15 15 14 14 14 15 15 14 13 13 12 12 11 11 11 10 10 11 12 13 13 14 13 13 13 13 13 13 13 13 12 11 10 9 9 8 8 6 5 2 3 4 5
5 2 1 2 3 3 3 3 3 2 10 9 9 4 6 3 6 8 12 11 8 4 9 4 11 11 8 14 7 8 9 12 15 15 15 15 15 14 13 10 10 9 9 9 8 9 9 8 8 7 7 8 8 7 8 12 16 15 15 14 14 13 13 13 13 12 12 11 10 11 11 13 13 12 13 13 12 13 12 11 11 12 12 13 12 11 10 9 8 7 6 5 4 2 2 5 5
5 2 1 0 4 3 5 2 1 4 8 4 7 5 1 3 2 3 3 8 3 2 1 3 4 2 12 6 14 13 14 16 16 16 16 17 15 12 11 10 9 8 7 8 8 7 7 8 6 7 6 7 7 6 7 8 14 16 15 14 14 13 13 12 11 12 13 12 12 12 12 10 11 10 14 11 12 12 10 7 10 10 11 12 12 11 10 8 7 6 4 4 2 1 2 6 6
1 2 2 2 7 4 4 2 3 5 6 9 9 5 4 2 7 7 3 9 12 1 5 4 1 6 16 7 15 15 15 16 17 18 16 14 12 9 8 8 8 6 6 6 7 7 7 7 7 6 7 8 8 7 6 7 11 14 12 13 13 13 13 12 11 13 12 12 11 11 9 5 4 4 6 5 10 6 7 9 9 8 9 11 12 11 10 8 7 6 5 3 3 2 1 4 5
2 4 4 5 6 8 4 2 3 4 8 11 13 7 3 3 5 3 8 11 10 9 9 6 12 8 10 15 15 15 15 18 18 17 12 12 11 10 10 9 8 8 7 6 6 7 7 6 7 7 7 8 8 7 5 6 7 9 7 7 6 9 12 11 8 5 8 6 12 7 4 4 4 3 3 7 4 5 6 9 9 7 8 10 10 10 9 8 7 6 5 4 3 2 0 1 3
4 2 4 8 5 12 3 1 6 5 8 9 13 15 1 1 2 2 7 3 9 11 7 8 14 11 14 17 17 17 16 16 16 16 16 16 13 15 12 10 8 8 7 6 6 7 6 6 7 7 8 8 9 7 6 6 6 5 5 5 5 8 8 7 5 5 5 6 7 6 4 4 3 3 3 5 4 8 6 9 9 7 7 8 9 10 8 7 6 5 4 2 2 0 0 1 2
5 4 6 8 9 7 2 3 9 3 5 11 15 13 0 1 1 1 4 5 10 12 8 5 13 15 16 15 16 16 16 15 15 16 15 15 14 13 12 11 10 8 8 7 7 5 7 7 7 8 9 9 8 6 5 5 5 4 4 5 5 5 5 4 5 6 6 6 6 5 4 3 3 2 7 10 8 4 4 8 8 7 7 7 8 6 7 5 5 6 6 6 4 3 2 3 4
3 4 5 7 4 4 7 6 6 6 6 8 8 5 7 8 3 4 9 7 2 6 11 14 14 16 15 16 16 15 15 16 14 16 15 14 13 10 10 9 10 9 7 7 6 7 7 8 7 7 8 8 8 7 7 6 5 5 4 5 5 4 4 4 5 6 5 6 6 5 4 3 3 2 3 4 4 4 3 3 2 1 1 2 5 4 4 4 4 3 3 4 4 4 4 3 4
2 4 6 10 8 8 10 9 10 8 12 9 6 5 3 5 1 4 9 10 8 10 10 16 19 19 19 17 14 14 15 14 14 9 4 14 16 13 9 6 4 4 6 6 7 7 6 7 8 7 7 7 7 7 7 7 6 5 5 5 5 4 5 5 5 5 5 5 5 5 4 5 4 3 4 4 4 4 4 3 2 1 2 3 3 4 3 3 3 3 3 3 3 3 4 4 4
5 6 6 9 8 8 5 7 6 5 5 8 8 7 1 3 3 2 6 8 10 4 10 14 18 18 17 16 16 12 9 8 9 12 7 10 12 12 10 8 8 7 6 6 6 6 7 7 8 8 7 6 6 6 6 5 5 5 5 5 6 5 5 5 5 5 4 4 5 4 5 4 4 4 4 4 4 4 3 2 1 1 3 4 3 4 3 2 3 3 3 3 3 3 3 3 5
6 8 6 11 9 10 10 12 11 10 9 7 8 7 4 1 5 2 3 1 5 6 9 13 15 15 15 14 10 11 13 11 8 6 7 7 9 8 11 11 8 5 5 6 6 7 7 9 8 8 7 7 6 6 6 6 5 6 5 5 5 6 6 5 5 4 4 5 4 4 4 5 5 5 5 5 4 4 4 2 1 2 2 2 2 4 3 2 3 3 3 3 4 3 2 2 4
6 8 8 11 11 8 8 10 10 8 9 8 8 5 9 4 2 3 0 6 6 11 11 14 16 15 13 13 14 14 14 15 14 11 9 7 15 11 8 9 9 8 7 7 6 7 8 8 9 8 7 6 5 6 6 5 5 5 5 6 6 7 5 5 5 5 4 4 4 4 5 5 4 4 5 4 4 4 4 3 2 2 2 2 2 3 3 2 2 3 4 3 3 3 2 2 1
5 11 9 9 9 9 9 8 8 8 4 4 5 8 7 6 3 2 10 7 8 10 12 14 15 16 13 13 14 15 14 14 12 15 14 10 8 10 8 9 8 10 8 8 7 6 7 9 10 10 8 7 7 6 5 6 5 6 5 5 5 6 5 6 5 5 4 5 4 4 4 4 5 5 4 3 4 3 4 3 3 2 2 2 3 2 1 1 2 3 3 2 4 3 3 0 2
3 6 6 7 9 7 6 10 12 12 4 5 7 5 5 4 3 1 3 6 8 11 13 14 17 17 15 14 12 13 15 13 14 13 14 11 11 9 10 10 9 8 8 8 6 6 7 8 9 9 8 7 7 7 6 6 5 6 5 5 5 5 6 6 5 4 4 4 4 4 4 4 4 4 5 5 3 4 3 4 3 3 3 2 3 3 2 2 2 1 2 3 2 2 2 1 3
5 7 8 10 10 9 6 6 9 4 3 7 8 6 7 3 1 4 8 5 8 13 13 13 13 13 13 15 13 11 10 12 10 15 18 16 11 10 10 11 10 9 9 8 6 6 7 9 8 9 8 8 8 8 7 7 6 6 5 6 5 5 5 5 5 4 4 4 5 5 4 4 4 4 5 4 4 4 4 4 3 4 3 3 3 3 3 2 2 1 2 3 2 2 2 2 1
5 5 6 10 9 8 4 4 6 4 4 5 7 5 3 1 3 4 9 8 8 13 13 14 14 13 13 13 11 9 10 11 10 11 14 13 12 10 11 10 12 11 9 10 7 6 8 8 8 8 8 8 8 9 8 7 6 6 6 6 6 6 5 5 5 5 5 5 5 5 5 4 4 5 4 5 5 5 5 4 3 3 3 3 3 3 4 3 2 2 2 2 3 3 3 2 4
6 5 2 7 7 8 8 3 5 6 3 7 6 6 7 6 7 8 4 10 8 11 11 11 11 12 11 12 11 10 10 10 9 9 10 11 12 12 12 8 7 2 5 11 9 7 6 5 5 6 8 9 9 8 7 7 7 6 5 5 5 6 5 5 5 5 4 4 4 5 4 4 4 4 4 4 5 5 5 5 4 4 3 3 3 4 4 4 3 3 2 4 3 4 4 2 5
2 6 2 4 4 7 3 1 0 2 3 5 5 6 7 7 10 10 4 11 14 11 12 10 11 11 11 11 11 10 10 10 11 10 12 14 12 11 12 10 9 4 3 9 11 5 2 5 6 6 8 8 9 8 8 7 6 7 6 5 5 6 5 5 5 5 5 5 5 5 4 4 4 4 4 5 5 5 5 5 4 3 4 3 4 4 5 4 4 4 3 5 3 4 3 2 3
1 4 6 4 4 7 6 5 3 6 3 3 5 6 7 8 11 11 6 10 11 14 12 12 12 11 11 10 9 9 10 8 9 12 14 13 10 11 12 12 9 8 7 10 12 7 2 1 3 5 5 6 6 7 7 7 7 6 6 6 6 5 5 5 5 5 5 4 5 5 4 4 4 3 3 4 5 5 5 5 4 4 5 4 3 3 5 5 4 3 2 5 6 3 4 4 3
2 5 4 7 4 6 6 5 5 9 5 1 7 6 1 6 10 10 9 9 14 11 11 12 14 13 11 10 9 9 11 9 10 11 11 10 9 10 11 12 10 9 9 10 12 10 4 5 8 6 6 6 6 6 6 6 7 6 7 6 6 5 5 5 5 5 5 5 4 4 5 5 3 3 3 3 4 4 4 4 4 5 5 5 4 4 4 4 4 4 2 2 4 5 5 4 3
7 0 4 3 5 3 5 7 6 4 5 5 2 4 5 4 6 11 10 8 11 13 12 11 13 12 12 11 10 11 12 13 14 13 12 10 10 11 10 10 11 11 11 9 10 10 8 7 6 4 6 7 5 5 2 5 6 6 5 5 5 5 5 5 5 5 5 5 4 5 4 4 4 4 4 4 5 4 4 5 4 4 5 5 4 4 3 2 3 3 4 3 4 6 5 5 5
5 3 3 7 3 4 8 4 4 1 4 6 6 5 7 8 9 8 11 10 10 15 13 13 14 13 12 11 11 12 12 14 14 12 12 12 12 11 10 10 11 10 10 11 8 7 6 6 4 2 7 8 8 9 4 9 2 5 4 5 5 4 4 5 5 5 5 4 5 3 3 3 4 3 3 4 5 5 4 4 4 3 4 5 5 4 3 4 3 2 4 4 4 3 5 4 5
3 3 4 3 4 7 7 8 7 2 3 5 7 8 9 13 14 9 8 7 6 10 14 13 11 12 12 12 11 12 11 12 9 9 10 9 9 11 9 10 10 11 11 11 9 8 7 5 4 4 5 8 7 6 8 3 6 5 6 4 5 5 5 5 4 5 4 5 4 3 3 4 3 4 3 3 4 5 4 4 4 3 4 5 5 5 4 4 4 4 3 6 6 5 5 4 5
6 5 4 7 6 8 5 9 6 2 2 7 10 10 12 14 16 15 11 5 4 8 9 7 10 12 13 12 13 12 12 11 9 10 9 10 10 10 10 11 11 11 11 12 13 12 9 8 7 6 5 8 9 7 8 9 6 5 3 5 6 5 5 4 4 3 4 4 4 4 4 4 4 3 3 4 5 5 4 4 4 3 3 4 4 4 4 3 3 4 4 3 6 7 5 3 3
6 7 7 9 6 9 8 12 5 3 3 5 10 12 13 16 16 14 11 3 5 7 11 13 12 12 13 15 13 12 9 6 11 11 11 10 10 12 11 10 12 14 10 13 15 13 9 8 7 6 6 7 8 9 8 9 7 7 6 6 3 5 4 5 4 3 4 3 3 4 4 4 4 4 4 3 4 5 5 4 4 5 4 4 4 3 3 3 4 4 4 4 1 5 4 5 6
6 7 8 7 10 7 14 9 2 1 2 8 9 12 13 17 15 13 11 9 7 9 16 18 19 15 11 12 12 12 10 9 9 9 10 10 13 13 11 11 12 12 13 15 13 10 9 8 7 7 6 8 7 8 6 6 4 5 5 5 5 2 1 3 4 4 4 5 4 4 4 4 5 4 4 4 4 4 5 5 5 5 4 4 5 4 3 3 4 4 4 5 3 3 4 3 0
6 7 4 8 8 4 9 4 3 5 1 6 8 9 12 14 10 11 12 9 7 6 14 18 19 19 17 17 17 15 12 13 13 11 10 11 13 10 9 10 10 7 7 7 6 9 9 8 8 8 8 7 8 8 7 6 4 4 3 5 4 4 3 2 3 4 4 4 3 3 3 4 3 3 3 4 3 4 5 5 4 4 5 4 5 5 4 4 5 4 3 4 5 5 3 3 2
6 6 7 7 9 8 7 6 6 6 9 1 3 1 4 4 8 5 9 1 3 0 7 10 12 14 14 12 11 15 16 13 13 11 10 10 9 6 8 14 11 7 4 2 4 8 9 12 11 11 9 9 8 8 8 5 4 4 4 5 5 6 4 4 5 3 4 4 4 3 4 3 3 3 3 3 3 4 4 4 4 3 4 4 4 4 4 5 6 6 5 6 5 6 4 2 1
6 7 11 13 14 10 6 6 5 7 8 5 4 3 3 5 2 8 5 2 2 2 10 14 12 8 12 13 12 9 10 9 12 12 15 16 17 15 13 15 12 7 7 4 8 7 6 8 8 8 7 8 9 8 6 4 6 7 6 7 7 6 6 6 6 7 4 5 6 3 2 3 3 3 3 3 3 3 3 3 3 4 4 5 5 4 4 4 3 3 5 5 4 2 5 4 2
6 7 8 13 11 5 4 5 2 3 4 7 3 1 2 5 1 1 0 1 0 2 4 11 12 12 13 12 11 12 13 13 13 13 16 15 15 16 17 17 14 12 10 12 9 2 2 4 6 7 7 7 7 6 6 7 7 7 9 8 7 8 8 3 3 4 6 3 4 4 4 3 3 4 3 3 3 3 3 3 3 4 4 4 4 5 5 4 6 5 4 5 4 5 4 4 6
6 4 6 8 5 3 4 3 2 6 3 6 2 3 2 1 2 2 1 3 2 4 8 5 4 10 12 11 12 14 13 14 16 17 16 16 14 12 12 13 14 14 11 7 9 4 7 9 9 7 5 4 5 4 7 9 9 8 9 8 8 8 7 6 6 5 2 3 5 4 5 3 3 3 3 3 3 3 3 3 3 3 3 3 3 5 5 4 4 4 5 5 4 5 5 7 5
5 6 7 5 5 4 4 3 4 4 3 9 8 2 1 1 5 3 2 2 6 9 6 9 11 11 13 13 14 16 14 15 14 14 14 12 10 16 16 15 12 16 16 11 10 9 9 11 11 8 7 6 5 7 8 9 9 9 10 8 8 6 7 6 5 4 3 3 5 4 5 4 2 1 2 4 3 3 3 4 3 3 3 3 3 2 2 4 5 5 5 5 5 4 4 4 6
7 6 4 3 1 1 3 4 3 2 1 7 7 0 1 3 5 5 4 1 7 3 4 6 10 15 15 12 13 15 13 12 12 13 13 14 14 12 11 11 12 14 15 12 10 10 10 11 11 9 7 7 6 7 8 8 9 9 9 8 9 6 6 6 6 5 4 4 6 5 4 5 3 3 2 3 4 4 4 3 2 4 4 4 3 3 3 3 3 4 5 5 5 5 3 5 6
3 4 2 4 2 1 1 3 2 2 3 7 7 1 2 1 3 3 4 3 6 6 6 6 9 11 12 15 17 14 13 13 12 12 14 14 13 14 10 10 9 11 15 15 13 12 12 11 11 9 8 6 5 7 8 9 7 8 9 8 9 8 8 8 7 6 4 4 6 4 4 4 3 4 4 3 3 4 3 3 5 4 4 3 4 4 5 4 4 4 4 4 5 6 5 4 3
3 1 2 2 7 3 0 2 2 2 3 7 7 4 5 2 4 8 8 6 13 16 13 14 14 13 13 13 12 13 14 14 15 11 13 12 10 8 8 9 11 11 13 15 13 12 12 11 10 10 7 6 5 5 6 8 7 7 8 10 10 10 10 9 10 8 7 6 6 5 3 5 4 4 4 4 3 3 4 4 4 5 4 4 4 4 4 5 5 4 5 5 5 4 5 5 5
2 2 4 3 3 3 2 2 1 2 5 4 3 8 2 1 1 7 10 3 10 4 16 19 16 15 14 13 13 12 12 14 14 10 11 11 13 12 12 13 12 11 11 13 14 12 11 11 12 12 9 6 4 4 6 7 6 7 8 9 9 9 9 9 8 7 5 7 6 5 4 6 3 5 5 5 2 4 4 5 5 5 4 4 4 4 3 4 4 4 4 4 5 5 6 6 6
2 2 3 3 2 2 2 2 1 2 5 6 1 1 1 1 2 10 8 7 9 15 9 6 12 16 15 14 12 11 11 13 12 11 11 12 12 12 13 12 12 11 10 10 8 9 10 9 10 10 9 6 3 3 4 5 4 6 7 8 8 7 8 8 7 7 6 6 6 6 6 6 5 5 4 4 3 3 3 4 5 4 4 4 4 4 4 3 4 5 4 4 4 3 3 4 4
6 3 8 8 6 3 2 2 2 3 6 3 5 2 3 4 2 8 8 9 3 13 17 13 9 7 6 6 8 10 12 11 11 11 11 10 10 10 9 10 11 10 9 5 2 3 3 6 7 8 8 5 2 2 2 4 3 4 4 4 6 6 7 7 7 7 7 7 6 6 5 5 6 5 6 4 3 4 3 3 4 5 4 4 4 4 4 4 4 4 4 4 3 3 3 4 4
2 2 4 4 7 6 3 5 4 1 0 2 3 2 1 5 0 4 11 10 7 4 8 13 12 8 7 7 7 10 10 10 10 9 8 7 5 4 2 4 5 4 4 5 1 3 5 6 7 7 7 6 3 1 1 3 3 4 5 5 6 7 7 7 6 6 6 7 7 7 5 4 5 5 4 5 4 4 4 4 4 4 4 4 4 5 4 4 4 5 4 4 4 3 5 5 4
3 2 3 9 7 9 4 2 1 5 3 0 0 5 6 4 7 7 11 12 6 5 7 8 7 7 7 8 6 5 6 7 9 8 8 7 4 2 0 1 3 5 6 5 1 0 2 7 8 9 8 6 4 3 3 4 4 5 5 5 5 6 6 6 7 6 5 5 6 5 6 5 4 4 4 4 4 4 4 4 4 4 5 4 4 4 5 4 4 4 5 4 4 3 5 5 5
2 1 7 1 3 5 5 4 1 2 3 2 2 4 2 2 1 1 9 12 7 6 7 8 7 6 6 4 3 3 4 4 4 3 2 2 1 2 2 2 4 5 4 6 4 3 2 1 6 9 8 7 4 4 3 2 3 4 4 3 3 6 5 4 5 6 6 7 6 6 5 6 5 4 4 3 4 4 4 4 4 4 4 4 5 4 4 4 4 5 4 4 2 4 5 4 4
8 7 3 1 1 2 3 4 0 1 0 1 2 1 0 1 2 1 4 11 13 13 10 9 8 6 5 4 3 2 2 3 4 6 5 3 2 3 4 4 6 6 5 5 5 4 4 3 4 7 8 7 5 3 2 2 2 3 4 5 6 6 6 6 6 7 7 8 7 7 6 6 5 4 5 4 4 4 4 4 5 4 4 5 4 4 4 4 5 4 3 4 3 5 6 5 3
2 2 2 2 5 2 2 4 4 6 2 2 2 3 1 1 0 2 4 3 11 14 12 10 9 8 4 3 3 3 2 5 7 8 8 7 7 6 5 6 6 5 5 5 6 6 6 5 6 6 6 6 5 5 5 6 6 4 3 2 4 7 6 7 7 8 8 9 8 7 7 6 6 4 4 4 4 4 4 4 3 5 5 4 5 4 5 4 4 4 4 4 3 5 5 5 3
4 3 1 0 1 2 4 1 2 4 5 5 3 0 1 1 3 3 4 4 8 10 11 9 8 8 7 5 4 4 6 6 7 8 9 9 8 7 6 6 6 5 5 5 6 7 5 5 6 5 7 6 7 6 8 9 10 12 12 10 8 2 7 6 7 8 8 7 6 6 6 6 5 5 5 5 4 4 3 3 3 4 5 5 5 4 4 4 5 4 4 4 2 4 5 4 4
2 2 3 3 2 5 4 6 2 3 5 3 5 4 1 2 4 5 4 2 6 8 10 9 10 9 7 6 6 5 5 6 7 7 8 9 10 8 7 6 6 6 5 6 5 6 6 5 4 5 6 6 8 9 9 8 8 10 10 7 4 5 2 5 7 7 7 6 6 6 5 5 5 4 5 5 4 3 3 3 3 3 4 4 4 4 4 4 5 4 4 3 3 4 4 4 4
Wind_Direction
206 39 53 71 86 276 65 24 98 301 79 246 257 219 251 236 249 298 280 322 310 345 335 45 44 52 99 115 107 87 21 147 248 136 195 147 95 112 119 121 125 120 123 127 128 127 129 128 126 125 125 125 128 127 124 123 122 119 115 116 117 117 115 113 110 109 109 109 109 110 110 109 108 108 110 113 112 113 114 115 112 106 106 108 108 106 104 105 103 98 94 94 93 90 88 90 91
171 145 13 175 274 80 292 136 103 4 36 312 248 187 243 231 236 237 266 251 217 114 325 86 84 88 100 113 127 91 41 34 53 94 86 101 94 89 117 127 130 125 127 126 124 127 131 131 128 128 127 129 129 128 126 125 123 120 119 120 119 118 117 114 113 111 111 111 111 112 112 112 108 105 103 98 98 107 114 110 107 108 111 111 109 106 103 101 100 98 97 96 91 90 90 90 85
53 50 11 59 9 121 182 48 196 138 149 242 265 211 317 314 250 280 254 248 232 130 223 90 90 71 104 121 43 50 110 72 88 87 98 125 101 117 113 116 116 119 123 125 126 131 131 133 131 129 128 129 130 129 128 126 123 122 122 122 121 120 116 114 113 113 113 113 113 113 113 112 112 111 106 102 102 101 101 108 112 113 114 112 109 106 105 105 102 100 100 96 90 87 84 81 78
78 78 121 42 351 8 76 36 102 137 207 223 302 253 236 242 262 242 259 257 97 150 225 4 40 318 98 70 96 88 104 89 96 123 122 145 126 130 122 117 116 115 121 125 129 131 133 135 131 129 129 131 132 131 128 127 127 126 126 126 123 119 116 115 114 115 115 115 116 115 115 115 114 114 112 115 115 110 109 110 108 110 112 114 111 106 104 103 104 102 98 94 88 86 82 79 76
78 350 112 71 107 348 100 194 168 125 228 161 230 265 246 242 275 290 260 257 192 138 122 130 78 357 51 85 70 107 129 115 103 83 99 87 120 125 122 118 117 120 123 126 126 130 136 136 132 130 133 135 135 132 130 130 130 129 129 126 122 119 118 117 116 116 116 115 115 114 114 113 112 110 110 104 101 98 102 102 99 94 86 86 95 100 101 102 101 103 96 89 87 83 80 76 72
58 44 315 94 182 209 31 335 267 221 238 120 270 256 264 295 300 290 290 299 83 139 131 109 124 143 41 19 19 93 135 119 144 100 119 128 127 127 121 117 115 121 123 124 128 132 136 136 134 136 137 138 137 135 133 134 132 130 127 126 122 121 120 119 119 119 119 117 114 114 116 115 114 110 106 104 102 101 101 103 104 105 100 99 104 108 108 107 106 101 92 86 81 76 73 70 69
28 46 9 24 331 85 152 196 244 242 257 206 252 280 296 293 282 292 290 308 71 70 89 113 116 108 84 105 35 7 87 123 119 139 125 130 126 123 123 116 115 120 126 125 127 131 137 138 139 140 141 140 138 136 136 135 132 130 128 127 126 123 122 121 120 119 120 119 116 116 115 114 113 109 106 106 105 102 99 98 97 98 101 105 111 112 111 111 111 100 92 84 77 74 71 65 58
102 106 250 106 260 77 247 222 251 200 273 189 247 261 265 264 270 282 275 275 238 89 98 129 144 94 43 22 113 337 83 94 113 116 121 125 127 121 118 121 118 122 127 125 127 134 140 141 143 143 141 139 139 139 138 136 134 132 131 130 127 126 125 124 121 120 121 121 119 117 114 111 107 104 103 104 104 101 102 102 103 102 103 106 108 107 108 110 107 102 95 90 78 67 61 52 46
2 98 302 76 317 340 310 246 252 235 264 260 260 258 271 272 284 282 274 237 62 80 133 150 127 89 160 80 63 88 90 111 114 122 123 126 124 124 122 120 120 126 127 129 131 137 141 148 145 143 142 143 143 142 141 139 136 134 133 132 129 127 126 125 123 121 122 122 121 119 117 114 111 108 105 104 105 106 106 104 103 100 99 106 110 108 111 111 108 100 89 83 72 59 54 44 37
14 103 263 162 143 265 287 275 249 244 245 242 252 262 263 269 265 246 215 111 124 122 20 17 73 109 126 93 105 91 115 121 121 120 127 125 126 122 118 121 124 129 131 130 135 142 151 149 146 146 146 147 145 142 140 137 135 134 134 132 128 126 124 123 124 127 126 125 122 121 117 115 114 113 114 113 112 112 110 109 104 104 100 96 113 118 118 116 114 112 101 84 66 47 41 31 27
325 339 180 49 19 240 245 266 262 300 281 286 273 253 245 257 251 245 211 126 140 127 114 99 80 118 100 89 51 76 128 126 126 131 132 126 123 122 122 126 129 133 134 139 145 150 151 147 146 146 145 142 139 135 133 133 132 133 131 127 124 121 121 125 127 130 126 122 120 119 117 118 122 124 123 122 120 119 116 112 111 109 107 102 102 112 115 116 116 113 106 82 43 23 28 20 10
21 220 73 124 206 185 245 229 279 282 286 277 272 262 242 224 247 214 224 111 142 139 156 148 153 121 90 122 129 140 135 129 127 132 128 127 125 124 123 128 132 137 140 148 150 145 136 144 142 145 141 139 136 134 132 132 132 131 127 123 119 117 120 122 124 122 124 123 123 123 126 128 131 130 127 124 123 120 118 117 116 116 116 110 110 113 115 114 112 110 112 103 66 8 7 5 356
161 224 89 100 231 166 254 283 271 290 295 282 273 290 274 193 203 191 206 54 107 145 158 184 141 118 122 125 125 137 131 128 122 124 125 124 119 112 119 129 137 142 146 147 141 130 129 133 143 138 138 136 133 130 129 130 129 127 124 121 120 121 122 122 124 124 124 124 129 132 134 134 126 122 121 121 120 120 120 121 122 122 121 118 115 121 121 119 116 116 111 106 107 28 344 344 338
164 184 126 255 299 247 269 261 271 289 282 277 280 270 341 113 222 121 77 55 24 111 125 132 118 110 100 117 124 143 138 131 120 118 119 115 113 118 123 134 135 134 133 130 128 128 123 128 132 136 138 133 133 132 133 131 128 126 124 122 121 123 123 121 122 124 126 129 132 131 125 116 114 118 122 123 122 122 122 126 125 124 121 121 121 118 120 121 122 124 116 113 117 128 308 309 322
205 198 128 183 293 333 233 245 239 289 282 278 277 4 330 278 111 96 105 99 59 79 100 74 145 103 200 152 167 161 146 132 117 115 112 112 111 123 126 127 122 123 129 130 122 118 123 122 124 127 126 129 129 132 133 133 127 127 124 121 122 125 126 129 130 129 127 130 129 123 123 121 124 123 120 115 115 117 120 122 125 125 125 121 119 118 117 112 103 102 109 121 129 133 285 297 311
189 153 169 153 265 226 269 229 58 260 265 311 283 359 28 321 357 104 196 127 154 333 216 144 253 184 167 166 148 145 136 126 119 114 113 111 112 115 118 117 119 126 129 122 116 117 119 119 121 120 119 121 123 122 126 132 132 131 125 125 127 126 127 126 126 127 128 130 126 121 123 124 121 122 119 119 120 121 123 126 125 124 127 122 121 122 121 121 119 123 122 117 98 84 317 308 319
220 163 269 233 275 236 254 182 211 244 274 296 303 341 56 334 42 36 338 91 103 84 75 4 88 100 141 130 135 128 127 123 120 117 116 117 120 119 115 115 125 127 126 125 122 123 126 128 123 116 118 122 121 117 121 125 136 128 122 126 126 123 123 121 123 125 126 128 122 105 96 85 72 84 109 116 123 120 125 129 120 127 131 126 124 123 122 120 121 119 114 104 98 72 319 304 316
174 204 196 243 229 256 211 185 278 287 295 305 327 317 65 33 104 138 58 38 82 60 58 61 49 59 117 119 121 122 131 127 127 125 127 127 128 131 132 139 140 143 142 128 118 126 131 130 123 119 122 121 118 117 120 126 129 123 121 129 124 121 124 121 118 117 115 98 103 95 86 84 82 83 92 120 115 131 133 129 123 135 137 124 122 116 113 110 109 111 122 128 140 146 237 289 299
184 212 167 227 210 239 86 218 252 271 298 314 303 302 232 133 135 222 91 134 95 72 44 70 88 87 104 119 125 131 136 134 132 131 137 136 139 144 143 144 141 136 139 129 120 126 129 124 127 124 122 119 114 111 116 116 111 108 111 117 117 117 115 110 110 101 79 90 93 89 89 88 91 81 98 122 125 131 129 127 130 144 134 121 116 111 109 105 102 105 95 103 98 73 38 273 287
217 185 221 236 235 260 262 234 265 305 298 303 298 300 95 286 45 350 104 142 107 113 116 68 105 122 129 132 133 137 141 139 133 136 142 143 137 134 141 141 141 155 150 142 138 124 130 137 137 129 130 130 124 124 118 117 115 116 118 112 109 104 106 102 101 91 81 84 90 96 103 105 102 124 142 141 128 105 125 130 138 145 131 118 104 91 88 86 72 50 40 43 38 19 354 332 312
265 164 217 237 239 275 263 249 271 274 265 273 288 284 12 319 331 121 137 79 36 154 157 148 148 142 141 144 142 144 146 143 133 147 150 130 130 134 137 148 156 158 147 134 133 138 145 144 138 138 137 135 135 133 131 130 128 124 114 105 102 104 98 91 89 86 92 97 102 107 111 109 98 65 54 82 93 104 86 81 87 67 85 85 84 75 68 60 63 61 41 40 39 24 12 344 336
315 213 224 245 262 260 264 263 257 266 272 284 278 349 294 294 37 121 149 144 193 189 197 153 151 148 148 151 148 149 151 140 141 121 140 137 137 133 128 123 111 121 140 143 150 145 148 148 148 142 141 143 139 137 137 136 132 125 116 111 105 95 94 94 90 89 98 106 111 117 114 110 104 86 72 85 88 92 92 83 105 111 87 87 79 76 69 86 88 82 66 48 32 28 8 343 324
246 276 268 258 246 251 267 270 258 247 268 280 290 283 247 345 326 187 181 175 199 209 159 153 149 151 148 144 146 142 119 101 119 146 157 132 128 126 135 135 146 158 163 155 144 151 149 152 154 146 146 141 134 132 127 124 127 120 116 122 116 108 102 100 95 100 113 118 116 127 124 123 121 122 114 102 102 102 107 109 142 121 118 99 93 102 72 52 79 78 65 51 43 37 3 333 309
211 254 256 263 253 245 254 256 259 263 260 259 263 280 266 56 346 304 51 21 142 139 146 138 135 135 138 137 125 101 93 90 102 52 9 50 57 140 147 144 162 152 156 155 157 159 161 163 156 149 144 140 140 139 130 128 125 125 132 120 108 123 115 109 116 127 130 129 130 137 132 136 144 145 136 124 127 110 120 121 138 97 88 96 95 92 94 52 44 66 75 47 49 43 19 331 292
230 251 254 263 267 257 249 243 244 249 248 247 277 250 252 183 200 73 298 138 142 133 135 136 135 135 136 125 120 116 127 153 150 124 122 148 164 162 135 148 155 156 161 166 163 163 167 161 155 150 141 140 139 139 133 128 128 124 120 120 124 135 119 128 137 144 145 138 134 139 145 144 150 142 139 136 125 132 134 138 131 99 84 90 86 63 82 92 53 61 64 56 53 50 33 338 344
224 235 247 256 257 259 252 256 245 242 243 222 264 259 274 263 258 155 177 176 153 137 138 137 133 136 137 134 131 143 158 161 134 140 145 158 154 145 145 154 160 168 167 163 165 162 162 165 164 159 148 145 146 138 133 134 135 124 126 128 136 137 141 145 150 160 158 143 140 144 148 157 156 147 135 127 134 153 143 129 117 119 118 121 95 85 65 76 66 58 71 84 65 58 65 5 124
241 275 254 250 264 275 270 257 261 254 239 193 226 255 278 300 264 311 269 190 146 135 141 143 142 146 148 143 150 161 163 143 153 135 140 154 159 160 156 157 170 163 149 158 156 158 159 166 169 157 146 147 147 140 141 135 134 132 135 136 137 147 149 153 158 156 152 148 147 150 157 160 138 130 138 149 157 149 128 125 128 135 132 128 113 124 106 100 78 101 99 75 72 69 95 185 147
277 263 287 280 277 269 274 281 267 287 267 195 181 223 235 286 156 206 186 228 165 144 148 148 145 147 148 145 160 171 140 150 150 145 147 153 162 163 162 164 169 158 156 150 146 152 159 171 163 149 149 150 148 144 143 143 145 144 139 139 150 153 152 158 157 156 156 159 160 157 162 159 143 147 149 156 155 141 136 132 130 125 143 138 128 121 115 100 95 103 82 94 111 118 120 99 47
275 296 299 291 295 297 270 255 266 242 257 200 184 237 280 296 204 231 187 165 180 153 154 151 150 154 145 149 164 158 143 155 157 153 155 155 155 156 161 175 166 167 153 134 133 149 165 166 155 150 150 153 152 151 152 148 144 144 146 152 158 162 161 159 159 164 164 168 165 164 168 163 157 158 168 169 155 144 142 129 128 143 153 139 114 122 114 108 97 78 60 109 95 108 104 81 82
338 323 260 300 302 288 267 226 251 258 242 196 143 257 256 253 242 254 190 168 169 158 157 152 149 153 147 152 165 154 140 150 161 154 153 152 156 156 157 166 152 147 179 127 128 151 160 158 156 154 155 156 153 151 147 148 149 147 149 157 164 163 164 163 167 166 165 165 169 172 167 167 168 172 169 166 146 143 143 147 152 160 150 135 124 129 122 127 121 112 131 99 111 121 120 120 98
277 279 329 242 309 261 284 231 267 287 230 178 157 227 264 268 266 256 191 186 160 172 171 150 150 153 148 159 168 151 147 158 157 155 164 163 160 156 152 147 142 134 286 116 118 126 186 160 161 159 158 152 150 149 148 148 149 150 155 162 168 167 169 168 168 165 167 174 170 171 171 181 177 183 175 147 146 142 144 144 148 148 134 133 124 143 134 139 139 141 148 111 103 94 95 75 82
290 2 291 313 210 286 299 280 237 251 288 155 165 240 226 237 243 249 209 182 179 176 175 156 154 155 152 158 165 150 147 157 156 163 172 165 152 151 152 148 133 128 130 117 116 110 229 173 165 155 149 141 143 147 145 145 151 156 161 166 172 172 167 169 169 172 175 170 173 170 174 184 180 189 162 147 142 143 141 141 140 127 131 124 125 130 128 140 147 131 135 130 116 103 105 79 62
324 184 263 273 295 278 334 280 220 216 231 275 178 231 300 286 254 253 245 170 186 184 178 161 161 156 151 154 162 153 146 157 165 173 170 156 157 150 149 142 130 130 123 126 125 118 143 204 178 160 140 135 131 145 144 145 154 163 167 172 177 171 168 174 175 163 173 175 176 163 174 186 177 174 159 146 133 130 126 121 129 128 127 124 123 126 125 144 133 132 119 123 130 133 122 109 77
276 333 217 216 245 289 273 296 303 253 195 265 245 214 226 238 248 236 238 208 164 190 179 168 163 161 157 158 167 161 159 163 175 175 172 161 152 152 138 134 132 129 120 110 131 121 148 189 171 130 116 98 72 11 357 159 164 164 168 166 173 174 179 177 166 165 172 178 166 171 178 166 154 157 152 141 133 136 130 128 124 122 127 127 122 113 122 113 121 127 123 104 123 126 125 120 112
223 252 300 301 285 234 250 298 276 314 261 232 259 251 251 256 249 238 227 214 165 179 178 175 172 160 155 164 168 167 166 174 178 174 162 155 150 141 127 130 129 119 110 119 121 108 142 174 133 103 114 125 138 134 70 325 186 161 152 162 172 180 177 180 165 172 169 155 176 175 158 148 155 148 136 132 126 126 116 120 120 132 127 124 121 118 114 106 109 102 118 104 87 79 115 116 111
187 213 213 218 276 283 272 264 267 213 301 271 252 239 245 245 249 242 247 239 198 178 178 176 162 154 155 166 171 171 179 181 165 155 151 144 135 129 126 127 127 123 124 121 129 150 147 172 148 90 101 135 131 132 127 137 283 166 152 160 168 183 188 174 180 178 157 169 180 164 163 159 150 140 136 127 123 121 120 126 131 134 126 122 123 124 125 135 138 116 111 117 104 83 66 91 97
288 294 288 266 262 273 273 268 267 250 262 243 243 242 239 241 234 236 232 225 211 145 158 156 158 157 165 170 173 173 179 176 143 140 144 143 130 125 127 130 127 123 134 144 163 166 159 172 150 134 128 140 149 152 155 155 212 171 156 171 180 187 187 181 174 169 173 176 170 166 164 154 143 133 136 139 142 134 126 130 130 128 121 121 130 144 151 151 133 131 120 102 120 108 88 90 92
242 260 268 279 273 274 269 273 296 277 209 267 239 239 238 239 235 233 237 160 206 162 153 154 163 168 171 168 166 167 163 126 142 141 152 147 134 129 129 130 132 134 147 156 181 167 151 168 149 139 141 150 162 170 167 164 194 186 168 180 180 177 172 163 164 161 167 159 156 158 151 143 142 149 154 152 144 134 140 147 143 145 129 130 138 134 147 138 117 130 129 92 43 114 117 148 162
250 228 255 270 268 266 273 271 283 219 252 261 262 242 236 236 233 231 226 210 212 179 160 166 167 172 168 163 159 155 152 150 142 146 150 151 136 133 131 132 137 146 154 177 176 141 144 159 154 149 158 158 173 175 166 180 196 178 166 170 163 146 167 169 151 155 149 144 154 153 143 144 148 156 157 155 143 143 153 156 158 149 144 140 130 135 138 137 143 141 145 133 116 69 108 155 74
234 255 256 247 252 256 288 280 302 296 179 276 282 233 240 239 242 233 233 202 229 181 175 168 169 170 165 164 165 162 155 155 151 151 150 142 137 127 118 119 134 145 130 179 149 144 148 166 160 157 172 167 175 182 179 193 183 165 151 137 131 135 157 137 113 120 116 115 147 160 153 152 154 152 161 155 147 154 157 159 155 141 149 149 149 150 153 144 134 148 154 136 135 115 112 162 168
242 220 236 250 259 246 218 272 313 312 315 221 290 257 252 268 228 259 262 281 282 109 154 169 181 165 153 141 148 161 158 141 135 134 115 101 78 68 114 109 117 135 174 182 178 164 169 175 167 167 171 176 182 186 191 175 129 101 90 80 87 77 66 97 107 114 139 149 135 157 186 149 147 158 167 160 162 162 158 155 152 151 145 157 150 147 160 159 164 166 154 145 157 147 150 141 11
270 232 217 237 247 251 268 288 337 357 316 316 113 3 271 301 280 230 286 7 229 120 142 166 157 116 132 143 140 99 93 112 119 107 101 104 102 94 100 131 136 112 98 146 226 196 186 173 154 162 172 176 184 194 196 160 152 140 137 134 137 133 136 140 152 160 162 152 171 180 127 137 145 153 170 169 166 158 162 164 154 155 147 155 164 159 151 129 119 181 159 153 149 154 140 128 123
234 264 210 225 233 225 241 282 10 308 260 281 73 195 264 333 340 261 312 61 298 40 149 157 144 140 144 139 133 126 121 114 94 96 110 109 121 128 146 151 151 146 164 173 181 206 167 146 154 177 180 185 191 191 184 162 147 155 157 155 155 153 151 180 162 161 161 164 125 150 149 151 155 157 177 177 177 175 158 158 163 168 162 158 162 145 153 162 164 169 138 136 155 137 129 131 155
238 239 184 204 209 208 263 275 220 243 254 291 6 129 150 310 292 252 342 56 39 97 83 68 71 126 130 132 133 127 119 102 107 112 117 121 127 135 159 164 158 149 153 176 156 166 177 167 172 180 198 203 197 183 182 165 154 160 153 151 154 151 157 164 166 171 155 125 123 139 141 158 172 173 165 176 186 176 169 181 174 170 165 167 168 171 168 165 154 142 151 149 139 150 156 153 169
215 239 212 240 232 221 252 285 270 254 355 291 305 14 44 265 269 314 37 26 26 63 116 115 124 121 126 126 123 122 110 113 114 118 121 124 147 165 172 174 161 144 154 172 170 183 169 172 178 182 190 188 192 184 174 159 155 157 151 148 148 157 149 147 148 139 141 131 105 102 119 144 164 166 190 181 194 180 172 190 186 174 162 169 195 158 142 164 165 153 143 139 155 150 161 162 150
255 219 205 221 281 244 215 244 266 316 246 278 285 42 145 291 279 338 343 68 65 105 68 82 120 134 133 125 114 114 112 109 112 125 130 151 178 173 174 162 161 163 152 156 173 176 173 174 181 183 183 182 189 183 161 154 154 150 145 152 146 144 128 123 130 140 142 130 112 111 111 111 126 125 161 154 152 145 142 145 149 175 162 169 169 157 149 156 160 162 163 162 161 153 152 158 170
184 158 214 280 311 332 6 210 183 77 233 255 240 277 135 282 280 347 19 9 150 122 83 88 123 122 122 128 132 127 122 122 125 136 151 167 170 164 160 164 172 170 158 162 177 180 174 175 177 179 175 179 198 174 156 156 154 149 148 148 142 142 138 136 133 136 130 109 116 123 119 123 109 102 90 67 94 104 102 101 98 100 127 138 136 135 144 146 151 154 147 142 153 152 149 144 137
157 119 175 320 312 25 37 331 81 148 269 257 242 181 138 171 306 351 327 297 172 144 143 142 138 133 134 137 134 131 131 131 138 150 160 162 157 151 152 168 182 183 166 168 178 181 173 169 167 168 167 178 201 179 155 150 150 153 148 149 149 150 148 148 149 154 154 141 137 140 138 103 82 79 70 75 64 86 86 74 81 86 104 127 125 124 130 131 134 131 132 134 133 135 142 135 144
150 100 45 143 272 30 324 6 265 195 195 245 194 128 60 57 108 340 329 304 156 130 146 148 144 144 145 145 142 143 138 137 144 158 160 164 163 163 175 183 175 176 180 177 181 180 172 168 169 163 169 168 200 181 166 154 151 155 153 151 151 151 150 149 148 147 151 140 143 137 136 122 107 79 72 81 64 102 109 94 84 92 100 123 131 125 123 112 110 115 128 129 133 146 158 149 152
102 189 155 115 205 270 243 272 208 306 279 257 257 317 105 238 51 360 340 307 135 115 100 112 139 144 146 150 147 139 139 144 150 167 175 171 168 177 186 176 170 173 181 181 188 184 174 170 163 159 152 153 182 192 173 147 149 154 154 151 149 150 149 147 147 144 151 142 147 149 152 149 138 133 120 118 145 110 95 110 110 99 101 121 123 114 108 110 115 121 122 120 132 146 120 132 141
208 147 154 183 151 162 222 219 218 217 205 277 303 159 222 104 286 336 1 20 48 125 131 136 131 128 125 114 118 129 140 152 164 173 181 175 180 185 179 174 175 177 175 158 157 191 166 146 140 141 136 130 134 188 156 137 116 115 130 131 143 148 146 146 148 148 148 142 153 149 154 147 139 150 133 151 130 102 110 105 101 92 88 105 113 110 106 100 100 94 99 108 97 101 99 110 122
237 183 70 108 219 142 182 200 149 226 38 2 10 68 5 99 221 351 58 43 35 41 110 126 127 118 119 124 144 153 154 160 170 170 172 177 183 196 190 185 165 124 78 52 105 172 160 140 127 127 131 124 120 126 156 136 121 106 130 138 158 150 150 145 143 146 149 143 153 148 152 146 144 140 139 130 132 118 113 94 79 80 89 98 109 119 114 103 103 101 99 102 95 101 113 108 126
268 87 174 218 184 121 91 17 38 77 53 234 228 79 51 122 57 38 64 67 20 67 87 85 92 109 124 139 147 156 151 155 168 174 175 172 167 171 236 197 70 56 70 66 60 308 189 138 124 124 127 118 122 149 175 168 148 129 149 156 161 144 144 150 150 147 128 123 132 138 137 141 136 131 137 129 124 116 116 108 89 83 92 100 98 105 114 117 109 106 107 103 106 117 100 112 117
104 170 244 174 89 110 133 200 241 97 147 251 57 134 167 48 167 349 106 116 153 133 111 107 96 103 113 109 130 159 154 168 149 116 119 168 129 82 65 64 61 55 67 86 45 23 355 58 113 119 125 124 125 139 165 162 120 108 127 128 152 131 123 116 123 121 120 112 114 120 122 125 139 144 131 130 119 118 112 107 106 102 100 97 104 104 113 117 103 89 98 89 112 98 95 90 103
164 194 205 115 296 247 318 94 31 101 176 236 341 128 149 135 179 180 201 150 149 152 139 130 124 120 119 111 73 38 67 101 95 77 69 39 41 42 43 59 57 68 70 81 79 71 80 70 87 110 121 127 133 125 117 56 56 118 139 153 148 124 121 124 124 123 121 121 129 135 135 139 128 128 121 122 115 111 115 114 120 123 105 102 102 108 107 103 107 99 85 91 81 95 101 106 120
331 84 44 89 107 151 114 202 174 116 213 76 288 54 211 260 212 230 160 208 138 136 138 134 134 129 117 120 132 129 68 60 71 75 65 57 51 46 55 62 65 69 80 79 78 72 77 91 88 89 95 100 91 72 64 51 15 41 80 98 122 123 124 128 129 126 125 131 139 137 137 137 150 133 129 126 119 130 135 128 130 119 114 116 117 121 116 115 103 111 116 102 101 101 107 117 111
10 44 349 351 6 210 116 130 128 157 164 171 154 292 266 288 293 108 131 159 146 138 135 141 146 137 122 113 82 80 62 66 76 87 89 85 82 78 68 70 74 76 79 78 77 81 88 87 97 105 106 99 83 63 60 48 40 31 30 22 14 74 126 126 125 124 127 132 138 141 145 149 129 135 131 125 136 151 141 133 127 127 131 134 130 131 128 119 114 115 114 125 115 103 113 121 111
83 138 141 205 139 113 179 262 2 90 103 188 140 222 251 275 23 30 64 25 132 143 143 134 138 125 104 71 68 71 85 82 80 78 84 94 98 98 91 78 73 72 67 73 78 87 81 80 86 87 81 72 78 71 78 78 68 68 70 53 4 323 63 118 115 117 122 132 142 145 142 130 136 146 134 137 148 154 134 130 135 128 126 136 138 137 137 121 120 121 129 132 125 106 111 115 106